{"data":{"norad_id":59903,"epoch":"2026-09-21T22:30:34.734528Z","epoch_age_seconds":50261,"freshness":"FRESH","line1":"1 59903U 24100U   26264.93790202 -.00000118  00000+0  52509-5 0  9991","line2":"2 59903  43.0033  96.8054 0001443 266.6461  93.4225 15.27573680131112","mean_motion":15.2757368,"eccentricity":0.0001443,"inclination_deg":43.0033,"raan_deg":96.8054,"arg_perigee_deg":266.6461,"mean_anomaly_deg":93.4225,"bstar":5.2509e-6,"rev_number":13111,"period_min":94.267138721584,"perigee_km":482.07794857405,"apogee_km":484.05809234296,"semimajor_km":6861.2050204585,"source":"CELESTRAK","updated_at":"2026-09-22T09:00:49.109316Z"}}